Location: Leo
(52.0556°N, 112.3605°W)
Time: 10:50:14
(UTC+00:00)

FO-29 - Pass Details

Date: 06 December 2023
Orbit: 799 x 1322 km, 98.6° (Epoch: 01 March)

Event Time Altitude Azimuth Distance (km) Brightness Sun altitude
Rises 10:00:37 0° 16° (NNE) 4,137 13.2 -47.4°
Reaches altitude 10° 10:03:18 10° 22° (NNE) 3,224 12.6 -47.1°
Enters shadow 10:06:39 28° 35° (NE) 2,191 11.5 -46.6°
